Volver al catálogo

COSMOS 970 DEB

ActivoLEO
NORAD 10565·DEBRIS·🇷🇺 Russia

Lanzado Dec 21, 1977 desde Baikonur Cosmodrome

Loading…

Próximos Pases (próximas 24 horas)

TLE

ActualizadoSource: Space-Track

Época: Sep 14, 2026, 06:17 UTC

1 10565U 77121G   26257.26222373  .00000121  00000-0  23106-3 0  9993
2 10565  65.8278 197.3273 0119412 198.3348 236.2455 13.66145282421340

Sigue COSMOS 970 DEB en tiempo real con AllMySat

Download on the App Store